Location: Brede
(50.9167°N, 0.6000°E)
Time: 02:18:40
(UTC+00:00)

Cosmos 1782 Rocket - Pass Details

Date: 08 August 2020
Orbit: 608 x 631 km, 82.5° (Epoch: 27 September)

Event Time Altitude Azimuth Distance (km) Brightness Sun altitude
Exits shadow 00:30:15 77° 208° (SSW) 632 3.3 -22.8°
Maximum altitude 00:30:32 86° 278° (W) 619 3.4 -22.8°
Drops below altitude 10° 00:34:55 10° 10° (N) 1,974 7.3 -22.7°
Sets 00:37:09 0° 11° (N) 2,883 8.5 -22.6°
